Torna al catalogo

DMSP 5D-2 F15 DEB

AttivoSSO
NORAD 25993·DEBRIS·🇺🇸 United States

Lanciato Dec 12, 1999 da Vandenberg Space Force Base

Loading…

Prossimi Passaggi (prossime 24 ore)

TLE

AggiornatoSource: Space-Track

Epoca: Sep 14, 2026, 11:25 UTC

1 25993U 99067C   26257.47591236  .00003138  00000-0  71885-3 0  9995
2 25993  98.3514 244.4965 0004425  44.9589 107.3792 14.56295867396952

Traccia DMSP 5D-2 F15 DEB in tempo reale con AllMySat

Download on the App Store